Retour au catalogue

COSMOS 1275 DEB

ActifPO
NORAD 12751·DEBRIS·🇷🇺 Russia

Lancé Jun 4, 1981 depuis Plesetsk Cosmodrome

Loading…

Prochains Passages (prochaines 24 heures)

TLE

FraisSource: Space-Track

Époque: Sep 14, 2026, 02:13 UTC

1 12751U 81053CU  26257.09265168  .00000224  00000-0  19581-3 0  9997
2 12751  82.9402 110.3532 0029193  48.6922  75.0637 13.81435171268360

Suivez COSMOS 1275 DEB en temps réel avec AllMySat

Download on the App Store